Weather History for Crestview, FL

Change the Weather History Date:

Thursday, November 22, 2012

  Actual Average Record
Temperature  
Mean Temperature 57 °F -  
Max Temperature 75 °F 69 °F 81 °F (1983)
Min Temperature 39 °F 45 °F 19 °F (2000)
Degree Days  
Heating Degree Days 8    
Growing Degree Days 7 (Base 50)    
Moisture  
Dew Point 44 °F    
Average Humidity 72    
Maximum Humidity 93    
Minimum Humidity 34    
Precipitation  
Precipitation 0.00 in - - ()
Sea Level Pressure  
Sea Level Pressure 30.21 in    
Wind  
Wind Speed 0 mph (East)    
Max Wind Speed 4 mph    
Max Gust Speed -    
Visibility 8 miles    
Events      
Averages and records for this station are not official NWS values.
T = Trace of Precipitation, MM = Missing Value Source: NWS Daily Summary

Daily Weather History Graph

Daily Weather History Graph

Search for Another Location

Airport:

Trip Planner

Search our weather history database for the weather conditions in past years. The results will help you decide how hot, cold, wet, or windy it might be!

Date:

Astronomy

Nov. 22, 2012 Rise Set
Actual Time 6:18 AM CST 4:45 PM CST
Civil Twilight 5:53 AM CST 5:11 PM CST
Nautical Twilight 5:23 AM CST 5:40 PM CST
Astronomical Twilight 4:54 AM CST 6:09 PM CST
Moon 1:12 PM CST (11/22) 12:58 AM CST (11/22)
Length of Visible Light 11h 18m
Length of Day
10h 26m
Waxing Gibbous, 71% of the Moon is Illuminated
Nov 22
Waxing Gibbous
Nov 28
Full
Dec 6
Last Quarter
Dec 13
New
Dec 19
First Quarter

Hourly Weather History & Observations

Time (CST) Temp. Windchill Dew Point Humidity Pressure Visibility Wind Dir Wind Speed Gust Speed Precip Events Conditions
12:53 AM 44.1 °F - 42.1 °F 93% 30.17 in 5.0 mi Calm Calm - N/A   Clear
1:53 AM 42.1 °F - 39.9 °F 92% 30.17 in 4.0 mi Calm Calm - N/A   Clear
2:53 AM 42.1 °F - 39.0 °F 89% 30.17 in 5.0 mi Calm Calm - N/A   Clear
3:53 AM 39.9 °F - 37.9 °F 93% 30.18 in 5.0 mi Calm Calm - N/A   Clear
4:53 AM 39.9 °F - 37.9 °F 93% 30.19 in 5.0 mi Calm Calm - N/A   Clear
5:53 AM 39.0 °F 36.8 °F 36.0 °F 89% 30.21 in 5.0 mi ENE 3.5 mph - N/A   Clear
6:53 AM 39.9 °F - 37.9 °F 93% 30.22 in 4.0 mi Calm Calm - N/A   Clear
7:53 AM 51.1 °F - 46.9 °F 86% 30.24 in 7.0 mi Calm Calm - N/A   Clear
8:53 AM 62.1 °F - 51.1 °F 67% 30.25 in 10.0 mi East 3.5 mph - N/A   Clear
9:53 AM 68.0 °F - 48.0 °F 49% 30.26 in 10.0 mi Calm Calm - N/A   Clear
10:53 AM 73.0 °F - 46.9 °F 39% 30.24 in 10.0 mi Calm Calm - N/A   Clear
11:53 AM 73.9 °F - 45.0 °F 35% 30.22 in 10.0 mi Calm Calm - N/A   Clear
12:53 PM 75.0 °F - 45.0 °F 34% 30.19 in 10.0 mi Calm Calm - N/A   Clear
1:53 PM 73.9 °F - 46.0 °F 37% 30.18 in 10.0 mi Calm Calm - N/A   Clear
2:53 PM 73.9 °F - 45.0 °F 35% 30.17 in 10.0 mi Calm Calm - N/A   Clear
3:53 PM 73.0 °F - 46.0 °F 38% 30.18 in 10.0 mi SSW 3.5 mph - N/A   Clear
4:53 PM 64.9 °F - 48.9 °F 56% 30.19 in 10.0 mi Calm Calm - N/A   Clear
5:53 PM 55.9 °F - 48.9 °F 77% 30.20 in 10.0 mi Calm Calm - N/A   Clear
6:53 PM 53.1 °F - 48.0 °F 83% 30.21 in 10.0 mi Calm Calm - N/A   Clear
7:53 PM 50.0 °F - 46.9 °F 89% 30.22 in 9.0 mi Calm Calm - N/A   Clear
8:53 PM 48.0 °F - 45.0 °F 89% 30.22 in 6.0 mi Calm Calm - N/A   Clear
9:53 PM 46.0 °F - 44.1 °F 93% 30.22 in 5.0 mi Calm Calm - N/A   Clear
10:53 PM 45.0 °F - 43.0 °F 93% 30.22 in 5.0 mi Calm Calm - N/A   Clear
11:53 PM 45.0 °F - 42.1 °F 90% 30.22 in 5.0 mi Calm Calm - N/A   Clear